Regional Weather Roundup
Issued by NWS Charleston, SC

Current Version | Previous Version | Graphics & Text | Print | Product List | Glossary On
Versions: 1 2 3 4 5 6 7 8 9 10 11 12 13 14 15 16 17 18 19 20 21 22 23 24 25 26 27 28 29 30 31 32 33 34 35 36 37 38 39 40 41 42 43 44 45 46 47 48 49 50
431
ASUS42 KCHS 251312
RWRCHS

REGIONAL WEATHER ROUNDUP
NATIONAL WEATHER SERVICE CHARLESTON SC
900 AM EDT SAT MAR 25 2017

NOTE: "FAIR" INDICATES FEW OR NO CLOUDS BELOW 12,000 FEET WITH NO
SIGNIFICANT WEATHER AND/OR OBSTRUCTIONS TO VISIBILITY.

NOT ALL STATIONS ARE QUALITY CONTROLLED. USE DATA WITH CAUTION...
ESPECIALLY DEWPOINT OBSERVATIONS.

SCZ027-030-031-034>040-042>050-251400-
...SOUTHEAST SOUTH CAROLINA...

CITY           SKY/WX    TMP DP  RH WIND       PRES   REMARKS
N CHARLESTON   PTSUNNY   66  55  67 SE3       30.35R
WATERFRONT PRK   N/A     65  54  67 VRB2      30.33R
JOHNS ISLAND   FAIR      68  54  60 CALM      30.34R
PINOPOLIS        N/A     59  55  88 CALM      30.25R
MONCKS CORNER  CLOUDY    59  55  88 CALM      30.35R
SUMMERVILLE    CLOUDY    57  55  94 CALM      30.36R
BEAUFORT MCAS  CLOUDY    63  61  93 N3        30.34R
BEAUFORT ARPT  CLOUDY    63  57  82 CALM      30.33R
HILTON HEAD IS PTSUNNY   66  57  72 SE3       30.34R
WALTERBORO     CLOUDY    59  55  88 CALM      30.35R
ALLENDALE      CLOUDY    59  55  88 CALM      30.33R

...SOUTHERN MIDLANDS AND PEE DEE...

CITY           SKY/WX    TMP DP  RH WIND       PRES   REMARKS
GEORGETOWN     CLOUDY    61  55  82 CALM      30.37R
KINGSTREE      PTSUNNY   57  54  88 CALM      30.36R
ORANGEBURG     CLOUDY    57  54  89 CALM      30.35R
BARNWELL       FAIR      57  55  94 CALM      30.35R FOG
AIKEN          FAIR      55  52  88 SE3       30.37R
MANNING        FAIR      55  54  94 CALM      30.36R
COLUMBIA       CLOUDY    56  51  84 CALM      30.34R
SUMTER         PTSUNNY   57  53  86 CALM      30.33R
FLORENCE       CLOUDY    57  55  93 CALM      30.36R
MYRTLE BEACH   CLOUDY    64  55  72 SW6       30.36R
N MYRTLE BEACH CLOUDY    64  58  80 CALM      30.36R

$$

GAZ063-065-086>088-099>101-113>116-118-119-134>141-150-251400-
...SOUTHEAST GEORGIA...

CITY           SKY/WX    TMP DP  RH WIND       PRES   REMARKS
SAVANNAH ARPT  PTSUNNY   64  57  78 E3        30.33R
HUNTER AAF     PTSUNNY   66  59  78 E3        30.30R
FORT STEWART   CLOUDY    58  56  93 CALM      30.30R
STATESBORO     MOSUNNY   57  32  39 CALM      30.33R
SYLVANIA       MOSUNNY  N/A N/A N/A CALM      30.34R
CLAXTON        FAIR     N/A N/A N/A CALM      30.33R

...CSRA...CENTRAL AND FAR SOUTHEAST GEORGIA...

CITY           SKY/WX    TMP DP  RH WIND       PRES   REMARKS
THOMSON        PTSUNNY   55  52  88 CALM      30.37S
AUGUSTA-BUSH   CLOUDY    57  54  89 CALM      30.33R
AUGUSTA-DANIEL CLOUDY    60  53  77 E6        30.33S
SWAINSBORO     FAIR      59  55  88 E3        30.33S
VIDALIA        PTSUNNY   61  57  88 E5        30.32R
EASTMAN        FAIR      60  60 100 CALM      30.33R
HAZLEHURST     FAIR      58  58 100 E3        30.30S
ALMA           MOSUNNY   58  58 100 CALM      30.30R
WAYCROSS       CLOUDY    63  63 100 E3        30.30R
JESUP          CLOUDY    59  55  88 CALM      30.32R
BAXLEY         FAIR      59  59 100 CALM      30.31R
BRUNSWICK      CLOUDY    64  63  94 CALM      30.32R
SAINT SIMONS   CLOUDY    67  59  75 E6        30.30R

$$

SCZ027-028-034-036>038-045-046-048>050-GAZ119-141-251400-
...LAKE AND SUPPLEMENTAL COASTAL OBSERVATIONS...

STATION/POSITION TIME  TEMP    WIND        PRES    WAVE   SWELL
                       AIR SEA DIR/SP/G            HT/PER HT/PER/DIR
                 (UTC) (F)     (DEG/KT/KT) (MB)    (FT/S) (FT/S/D)
WINYAH BAY       NOT AVBL
LAKE MURRAY      1220   56        CALM     1026.4
ACE BASIN NERRS  NOT AVBL
FORT PULASKI     1242   63 61   50/  1/  2 1027.0R
SAPELO ISLAND    1200   64     110/  4     1025.0

$$

ANZ835-935-AMZ111-154-330-350-352-354-370-450-454-472-251400-
...C-MAN AND BUOY OBSERVATIONS...

STATION/POSITION TIME  TEMP    WIND        PRES    WAVE   SWELL
                       AIR SEA DIR/SP/G            HT/PER HT/PER/DIR
                 (UTC) (F)     (DEG/KT/KT) (MB)    (FT/S) (FT/S/D)
BUOY 41004       1150   69 71  160/ 12/ 14 1026.1    4/ 7   3/130/ 7
BUOY 41008       1150   64 62  100/  6/  6 1024.9    5/ 8   5/120/ 8
FOLLY BEACH CMAN 1200   64     210/  5/  6 1027.3R
CAPERS NEARSHORE 1208   62     120/  2/  4 1026.8R
FRIPP NEARSHORE  1208   63 60  120/  6/  8 1026.1R


STATION/POSITION TIME  TEMP    WIND        PRES    WAVE   SWELL
                       AIR SEA DIR/SP/G            HT/PER HT/PER/DIR
                 (UTC) (F)     (DEG/KT/KT) (MB)    (FT/S) (FT/S/D)
5E ST. MARYS GA  1230      64                N/A     5/ 8   2/110/11
FRYING PAN BUOY  1250   69 73  180/  8/ 10 1028.0R   4/ 8   3/130/ 8
BUOY 41025       1250   69 76  260/ 14/ 17 1028.1R   4/ 5   2/120/ 9
CAPE LOOKOUT NC  1200   65     250/  5/  7 1027.3R
BUOY 41002       1150   64 73   70/  8/ 12 1029.1    5/ 9   5/ 80/ 9
BUOY 41010       NOT AVBL
ST AUGUSTINE FL  1300   67 66  130/  6/  6 1026.0R


$$




USA.gov is the U.S. government's official web portal to all federal, state and local government web resources and services.